{"data":{"norad_id":57250,"intl_designator":"2023-094AJ","name":"STARLINK-5488","alt_names":[],"object_type":"PAYLOAD","status":"ACTIVE","operator":null,"country":"US","launch_date":"2023-07-07","launch_site_code":"AFWTR","launch_vehicle":null,"mission":null,"orbit_class":"UNKNOWN","rcs_meters":null,"size_class":null,"mass_kg":null,"dimensions":null,"purposes":["comms"],"wikipedia_slug":null,"has_3d_model":false,"image_url":null,"decayed_at":null,"tle_current":{"epoch":"2026-09-20T13:26:24.353376Z","epoch_age_seconds":119146,"freshness":"FRESH","line1":"1 57250U 23094AJ  26263.56000409  .00000477  00000+0  26855-4 0  9997","line2":"2 57250  43.0030 359.2979 0001300 269.6951  90.3752 15.27575051177040","mean_motion":15.27575051,"eccentricity":0.00013,"inclination_deg":43.003,"raan_deg":359.2979,"arg_perigee_deg":269.6951,"mean_anomaly_deg":90.3752,"bstar":2.6855e-5,"rev_number":17704,"period_min":94.267054116741,"perigee_km":482.17195904708,"apogee_km":483.95587128503,"semimajor_km":6861.2009151661,"source":"CELESTRAK","updated_at":"2026-09-21T09:00:33.590928Z"}}}